Regional Weather Roundup
Issued by NWS State College, PA

Home | Current Version | Previous Version | Text Only | Print | Product List | Glossary On
Versions: 1 2 3 4 5 6 7 8 9 10 11 12 13 14 15 16 17 18 19 20 21 22 23 24 25 26 27 28 29 30 31 32 33 34 35 36 37 38 39 40 41 42 43 44 45 46 47 48 49 50
000
ASUS41 KCTP 192203
RWRCTP

REGIONAL WEATHER ROUNDUP
NATIONAL WEATHER SERVICE STATE COLLEGE PA
500 PM EST FRI DEC 19 2014

Note: "fair" indicates few or no clouds below 12,000 feet with no
significant weather and/or obstructions to visibility.

* = STATION THAT DOES NOT REPORT PRECIPITATION /E.G. RAIN...SNOW...ETC/
    THUNDER OR FOG.

PAZ002>004-007>009-013>016-020>023-029>032-192300-
WESTERN PENNSYLVANIA

CITY           SKY/WX    TMP DP  RH WIND       PRES   REMARKS
ERIE           MOCLDY    30  19  63 W7        30.23S
MEADVILLE      CLEAR     26  18  71 W6        30.20R
FRANKLIN*      MOCLDY    27  18  69 CALM      30.20R
NEW CASTLE       N/A     30  21  69 NW3       30.25R
BEAVER COUNTY  CLOUDY    30  21  69 NW3       30.22R
BUTLER*        CLOUDY    30  21  69 CALM      30.22R
PITTSBURGH INT CLOUDY    31  23  72 NW6       30.22R
PITTSBURGH     CLOUDY    30  19  63 NW6       30.20S
INDIANA*       CLOUDY    30  23  74 NW5       30.23R
LATROBE        CLOUDY    32  25  74 W12       30.23R
WASHINGTON CO* NOT AVBL
$$

PAZ004>006-010>012-017>019-024>028-033>037-041-042-045-046-049>053-192300-
CENTRAL PENNSYLVANIA

CITY           SKY/WX    TMP DP  RH WIND       PRES   REMARKS
BRADFORD       CLOUDY    22  18  85 NW10      30.12R WCI  11
DUBOIS         CLOUDY    26  19  74 W9        30.14R
CLEARFIELD     CLOUDY    29  19  66 W7        30.15R
JOHNSTOWN      CLOUDY    25  18  74 W10       30.12R WCI  15
ALTOONA        CLOUDY    29  20  69 W12       30.16R
STATE COLLEGE  MOCLDY    32  19  59 NW10      30.15R
WILLIAMSPORT   CLOUDY    34  20  56 NW7       30.15R
SELINSGROVE    CLOUDY    35  21  56 NW8       30.16R
FT INDIANTOWN  PTCLDY    35  20  53 VRB5      30.14R
CAPITAL CITY   CLEAR     36  21  54 NW8       30.16R
HARRISBURG     PTCLDY    35  20  54 NW14      30.15
YORK           CLEAR     35  22  58 NW5       30.15R
$$

PAZ038>040-043-044-047-048-054-055-060>062-067>071-192300-
EASTERN PENNSYLVANIA

CITY           SKY/WX    TMP DP  RH WIND       PRES   REMARKS
SCRANTON       CLOUDY    30  19  63 NW9       30.12R
MOUNT POCONO   CLOUDY    25  18  74 NW18G26   30.03R WCI  11
ALLENTOWN      PTCLDY    34  21  59 N10       30.13R
QUAKERTOWN*    CLEAR     32  23  69 N6        30.12R
READING        CLEAR     34  20  56 NW10      30.12R
LANCASTER      CLEAR     34  21  59 NW8       30.13R
COATESVILLE    CLEAR     37  25  60 NW8       30.11R
POTTSTOWN      CLEAR     35  20  54 NW8       30.12R
BLUE BELL      CLEAR     37  23  56 NW5       30.10R
DOYLESTOWN     CLEAR     32  22  66 N8        30.11R
WILLOW GROVE   NOT AVBL
NORTH PHILA    CLEAR     38  20  48 N13       30.12R
PHILADELPHIA   PTCLDY    40  21  46 NW10G21   30.12R
$$


USA.gov is the U.S. government's official web portal to all federal, state and local government web resources and services.